{"data":{"norad_id":66704,"epoch":"2026-09-19T04:32:22.588512Z","epoch_age_seconds":128353,"freshness":"FRESH","line1":"1 66704U 25276AQ  26262.18915033  .00004244  00000+0  19076-3 0  9992","line2":"2 66704  97.4061 334.4128 0001556  20.7064 339.4235 15.21671634 44725","mean_motion":15.21671634,"eccentricity":0.0001556,"inclination_deg":97.4061,"raan_deg":334.4128,"arg_perigee_deg":20.7064,"mean_anomaly_deg":339.4235,"bstar":0.00019076,"rev_number":4472,"period_min":94.632768846107,"perigee_km":499.72772727136,"apogee_km":501.86845187124,"semimajor_km":6878.9350895713,"source":"CELESTRAK","updated_at":"2026-09-20T09:00:34.725353Z"}}